Regional Weather Roundup
Issued by NWS

Home | Current Version | Previous Version | Graphics & Text | Print | Product List | Glossary On
Versions: 1 2 3 4 5 6 7 8 9 10 11 12 13 14 15 16 17 18 19 20 21 22 23 24 25 26 27 28 29 30 31 32 33 34 35 36 37 38 39 40 41 42 43 44 45 46 47 48 49 50
000
ASUS45 KCYS 220010
RWRWY

WYOMING REGIONAL WEATHER ROUNDUP
NATIONAL WEATHER SERVICE CHEYENNE WY
600 PM MDT THU SEP 21 2017

NOTE:  "FAIR" INDICATES FEW OR NO CLOUDS BELOW 12,000 FEET
WITH NO SIGNIFICANT WEATHER AND/OR OBSTRUCTIONS TO VISIBILITY.

WYZ001-220100-
YELLOWSTONE NATIONAL PARK

CITY           SKY/WX    TMP DP  RH WIND       PRES   REMARKS
LK YELLOWSTONE NOT AVBL
W YELLOWSTONE  NOT AVBL

$$
WYZ002>013-054>058-071-098>099-220100-
NORTHERN WYOMING

CITY           SKY/WX    TMP DP  RH WIND       PRES   REMARKS
JACKSON        CLOUDY    39  37  92 N5        29.80R
CODY           LGT RAIN  41  38  89 N13       29.86
GREYBULL       CLOUDY    51  40  65 NW20G25   29.79R
6HR MIN TEMP:  51; 6HR MAX TEMP:  57;

WORLAND        CLOUDY    51  42  71 N14       29.78R
6HR MIN TEMP:  51; 6HR MAX TEMP:  59;

SHERIDAN       CLOUDY    49  42  77 NW14      29.86S
6HR MIN TEMP:  49; 6HR MAX TEMP:  54;

BUFFALO        FAIR      49  38  65 NW13      29.85R
6HR MIN TEMP:  49; 6HR MAX TEMP:  58;

GILLETTE         N/A     60  41  49 MISG      29.78R
6HR MIN TEMP:  59; 6HR MAX TEMP:  65;

HULETT         FAIR      63  39  42 NE14G23   29.79R
NEWCASTLE      FAIR      77  36  22 N14       29.66F

$$
WYZ014>020-022>026-101>103-220100-
CENTRAL WYOMING

CITY           SKY/WX    TMP DP  RH WIND       PRES   REMARKS
BIG PINEY      CLOUDY    54  41  61 W16       29.73R
6HR MIN TEMP:  54; 6HR MAX TEMP:  65;

PINEDALE       CLOUDY    55  37  50 CALM      29.72R
DUBOIS         DRIZZLE   45  41  87 NW6       29.74F
LANDER           N/A    N/A N/A N/A MISG      29.70R
RIVERTON       FAIR      53  40  61 N23       29.68R
6HR MIN TEMP:  53; 6HR MAX TEMP:  69;

CASPER         FAIR      66  38  35 N28       29.70R
6HR MIN TEMP:  62; 6HR MAX TEMP:  76;

DOUGLAS        FAIR      77  32  19 NE22G28   29.66S
6HR MIN TEMP:  76; 6HR MAX TEMP:  87;


$$
WYZ021-027>030-104>119-220100-
SOUTHERN WYOMING

CITY           SKY/WX    TMP DP  RH WIND       PRES   REMARKS
EVANSTON       PTSUNNY   53  46  77 S18       29.69R
6HR MIN TEMP:  51; 6HR MAX TEMP:  66; 6HR PCP: TRACE;

KEMMERER       RAIN      50  45  81 W6        29.72S
FORT BRIDGER   MOCLDY    63  36  37 S12       29.70S
ROCK SPRINGS   FAIR      69  21  16 S29G40    29.67S
6HR MIN TEMP:  65; 6HR MAX TEMP:  72;

DIXON          FAIR      75  19  12 S21G28    29.77S
RAWLINS        FAIR      73  19  13 S26G36    29.75S
6HR MIN TEMP:  69; 6HR MAX TEMP:  76;

SARATOGA       FAIR      73  18  12 SW23      29.79S
LARAMIE        FAIR      75  12   9 SW24G30   29.80S
6HR MIN TEMP:  74; 6HR MAX TEMP:  78;

CHEYENNE       FAIR      80  18  10 S12       29.75F
6HR MIN TEMP:  79; 6HR MAX TEMP:  84;

TORRINGTON     FAIR      83  31  15 E16G25    29.61F
6HR MIN TEMP:  74; 6HR MAX TEMP:  89;

PINE BLUFFS    FAIR      82  21  10 SE8       29.69F

$$



USA.gov is the U.S. government's official web portal to all federal, state and local government web resources and services.